Time,TemperatureF,DewpointF,PressureIn,WindDirection,WindDirectionDegrees,WindSpeedMPH,WindSpeedGustMPH,Humidity,HourlyPrecipIn,Conditions,Clouds,dailyrainin,SoftwareType,DateUTC
2015-04-18 00:03:00,71.3,71.0,30.05,NE,45,2.3,2.3,99,0.00,RA,,0.00,WeatherDisplay:10.37,2015-04-18 04:03:00,
2015-04-18 00:08:00,71.3,71.0,30.05,ENE,67,0.0,0.0,99,0.00,RA,,0.00,WeatherDisplay:10.37,2015-04-18 04:08:00,
2015-04-18 00:13:00,71.2,70.9,30.05,ENE,67,0.0,0.0,99,0.00,CLR,,0.00,WeatherDisplay:10.37,2015-04-18 04:13:00,
2015-04-18 00:18:00,71.1,70.8,30.04,ENE,67,0.0,0.0,99,0.00,CLR,,0.00,WeatherDisplay:10.37,2015-04-18 04:18:00,
2015-04-18 00:23:00,71.1,70.8,30.04,ENE,67,2.3,2.3,99,0.00,CLR,,0.00,WeatherDisplay:10.37,2015-04-18 04:23:00,
2015-04-18 00:33:00,70.8,70.5,30.04,SE,135,1.0,1.0,99,0.00,CLR,,0.00,WeatherDisplay:10.37,2015-04-18 04:33:00,
2015-04-18 00:38:00,70.7,70.4,30.04,ESE,112,0.0,0.0,99,0.00,CLR,,0.00,WeatherDisplay:10.37,2015-04-18 04:38:00,
2015-04-18 00:44:00,70.5,70.2,30.04,ESE,112,2.3,2.3,99,0.00,CLR,,0.00,WeatherDisplay:10.37,2015-04-18 04:44:00,
2015-04-18 00:49:00,70.4,70.1,30.04,ESE,112,0.0,0.0,99,0.00,CLR,,0.00,WeatherDisplay:10.37,2015-04-18 04:49:00,
2015-04-18 00:54:00,70.4,70.1,30.04,ESE,112,0.0,0.0,99,0.00,CLR,,0.00,WeatherDisplay:10.37,2015-04-18 04:54:00,
2015-04-18 00:59:00,70.4,70.1,30.04,ESE,112,0.0,0.0,99,0.00,CLR,,0.00,WeatherDisplay:10.37,2015-04-18 04:59:00,
2015-04-18 01:04:00,70.2,69.9,30.04,ESE,112,0.0,0.0,99,0.00,CLR,,0.00,WeatherDisplay:10.37,2015-04-18 05:04:00,
2015-04-18 01:09:00,70.0,69.7,30.04,ESE,112,0.0,0.0,99,0.00,CLR,,0.00,WeatherDisplay:10.37,2015-04-18 05:09:00,
2015-04-18 01:14:00,69.8,69.5,30.04,ESE,112,0.0,0.0,99,0.00,CLR,,0.00,WeatherDisplay:10.37,2015-04-18 05:14:00,
2015-04-18 01:19:00,69.7,69.4,30.03,ESE,112,0.0,0.0,99,0.00,CLR,,0.00,WeatherDisplay:10.37,2015-04-18 05:19:00,
2015-04-18 01:24:00,69.7,69.4,30.03,South,180,1.2,1.2,99,0.00,CLR,,0.00,WeatherDisplay:10.37,2015-04-18 05:24:00,
2015-04-18 01:29:00,69.5,69.2,30.03,South,180,2.3,0.0,99,0.00,CLR,,0.00,WeatherDisplay:10.37,2015-04-18 05:29:00,
2015-04-18 01:34:00,69.4,69.1,30.03,SW,225,2.3,2.3,99,0.00,CLR,,0.00,WeatherDisplay:10.37,2015-04-18 05:34:00,
2015-04-18 01:39:00,69.5,69.2,30.03,SW,225,2.3,2.3,99,0.00,CLR,,0.00,WeatherDisplay:10.37,2015-04-18 05:39:00,
2015-04-18 01:44:00,69.5,69.2,30.03,SW,225,0.0,0.0,99,0.00,CLR,,0.00,WeatherDisplay:10.37,2015-04-18 05:44:00,
2015-04-18 01:49:00,69.4,69.1,30.03,SW,225,0.0,0.0,99,0.00,CLR,,0.00,WeatherDisplay:10.37,2015-04-18 05:49:00,
2015-04-18 01:54:00,69.3,69.0,30.03,SW,225,0.0,0.0,99,0.00,CLR,,0.00,WeatherDisplay:10.37,2015-04-18 05:54:00,
2015-04-18 01:59:00,69.5,69.2,30.03,SW,225,0.0,0.0,99,0.00,CLR,,0.00,WeatherDisplay:10.37,2015-04-18 05:59:00,
2015-04-18 02:04:00,69.8,69.5,30.03,SW,225,0.0,0.0,99,0.00,CLR,,0.00,WeatherDisplay:10.37,2015-04-18 06:04:00,
2015-04-18 02:09:00,69.8,69.5,30.03,SW,225,0.0,0.0,99,0.00,CLR,,0.00,WeatherDisplay:10.37,2015-04-18 06:09:00,
2015-04-18 02:14:00,69.8,69.5,30.02,SW,225,0.0,0.0,99,0.00,CLR,,0.00,WeatherDisplay:10.37,2015-04-18 06:14:00,
2015-04-18 02:19:00,69.8,69.5,30.02,SW,225,0.0,0.0,99,0.00,CLR,,0.00,WeatherDisplay:10.37,2015-04-18 06:19:00,
2015-04-18 02:24:00,69.7,69.4,30.02,SSE,157,2.3,2.3,99,0.00,CLR,,0.00,WeatherDisplay:10.37,2015-04-18 06:24:00,
2015-04-18 02:29:00,69.7,69.4,30.02,SSE,157,2.3,2.3,99,0.00,CLR,,0.00,WeatherDisplay:10.37,2015-04-18 06:29:00,
2015-04-18 02:34:00,69.6,69.3,30.02,SSE,157,2.3,2.3,99,0.00,CLR,,0.00,WeatherDisplay:10.37,2015-04-18 06:34:00,
2015-04-18 02:39:00,69.5,69.2,30.02,SSE,157,2.3,2.3,99,0.00,CLR,,0.00,WeatherDisplay:10.37,2015-04-18 06:39:00,
2015-04-18 02:44:00,69.4,69.1,30.02,SSE,157,1.2,1.2,99,0.00,CLR,,0.00,WeatherDisplay:10.37,2015-04-18 06:44:00,
2015-04-18 02:49:00,69.1,68.8,30.02,SSE,157,0.0,0.0,99,0.00,CLR,,0.00,WeatherDisplay:10.37,2015-04-18 06:49:00,
2015-04-18 02:54:00,69.0,68.7,30.02,SSE,157,2.3,2.3,99,0.00,CLR,,0.00,WeatherDisplay:10.37,2015-04-18 06:54:00,
2015-04-18 02:59:00,68.9,68.6,30.02,SW,225,2.3,2.3,99,0.00,CLR,,0.00,WeatherDisplay:10.37,2015-04-18 06:59:00,
2015-04-18 03:04:00,68.7,68.4,30.02,WSW,247,3.5,3.5,99,0.00,CLR,,0.00,WeatherDisplay:10.37,2015-04-18 07:04:00,
2015-04-18 03:09:00,68.7,68.4,30.02,WSW,247,3.5,3.5,99,0.00,CLR,,0.00,WeatherDisplay:10.37,2015-04-18 07:09:00,
2015-04-18 03:14:00,68.6,68.3,30.02,WSW,247,3.0,3.0,99,0.00,CLR,,0.00,WeatherDisplay:10.37,2015-04-18 07:14:00,
2015-04-18 03:19:00,68.6,68.3,30.02,WSW,247,3.5,3.5,99,0.00,CLR,,0.00,WeatherDisplay:10.37,2015-04-18 07:19:00,
2015-04-18 03:24:00,68.5,68.2,30.02,WSW,247,2.3,2.3,99,0.00,CLR,,0.00,WeatherDisplay:10.37,2015-04-18 07:24:00,
2015-04-18 03:29:00,68.4,68.1,30.02,WSW,247,2.3,2.3,99,0.00,CLR,,0.00,WeatherDisplay:10.37,2015-04-18 07:29:00,
2015-04-18 03:34:00,68.2,67.9,30.01,WSW,247,2.3,2.3,99,0.00,CLR,,0.00,WeatherDisplay:10.37,2015-04-18 07:34:00,
2015-04-18 03:39:00,68.1,67.8,30.02,WSW,247,2.3,2.3,99,0.00,CLR,,0.00,WeatherDisplay:10.37,2015-04-18 07:39:00,
2015-04-18 03:44:00,68.2,67.9,30.02,WSW,247,2.3,2.3,99,0.00,CLR,,0.00,WeatherDisplay:10.37,2015-04-18 07:44:00,
2015-04-18 03:49:00,68.2,67.9,30.02,WSW,247,2.3,2.3,99,0.00,CLR,,0.00,WeatherDisplay:10.37,2015-04-18 07:49:00,
2015-04-18 03:54:00,68.3,68.0,30.01,WSW,247,2.3,2.3,99,0.00,CLR,,0.00,WeatherDisplay:10.37,2015-04-18 07:54:00,
2015-04-18 03:59:00,68.4,68.1,30.01,WSW,247,2.3,2.3,99,0.00,CLR,,0.00,WeatherDisplay:10.37,2015-04-18 07:59:00,
2015-04-18 04:04:00,68.4,68.1,30.01,WSW,247,2.3,2.3,99,0.00,CLR,,0.00,WeatherDisplay:10.37,2015-04-18 08:04:00,
2015-04-18 04:09:00,68.5,68.2,30.02,WSW,247,1.0,1.0,99,0.00,CLR,,0.00,WeatherDisplay:10.37,2015-04-18 08:09:00,
2015-04-18 04:14:00,68.5,68.2,30.01,WSW,247,2.3,2.3,99,0.00,CLR,,0.00,WeatherDisplay:10.37,2015-04-18 08:14:00,
2015-04-18 04:19:00,68.6,68.3,30.01,WSW,247,2.3,2.3,99,0.00,CLR,,0.00,WeatherDisplay:10.37,2015-04-18 08:19:00,
2015-04-18 04:24:00,68.6,68.3,30.01,WSW,247,2.3,2.3,99,0.00,CLR,,0.00,WeatherDisplay:10.37,2015-04-18 08:24:00,
2015-04-18 04:29:00,68.7,68.4,30.01,SSW,202,2.3,2.3,99,0.00,CLR,,0.00,WeatherDisplay:10.37,2015-04-18 08:29:00,
2015-04-18 04:34:00,68.7,68.4,30.01,South,180,2.3,2.3,99,0.00,CLR,,0.00,WeatherDisplay:10.37,2015-04-18 08:34:00,
2015-04-18 04:39:00,68.8,68.5,30.01,SSE,157,2.3,2.3,99,0.00,CLR,,0.00,WeatherDisplay:10.37,2015-04-18 08:39:00,
2015-04-18 04:44:00,68.7,68.4,30.01,SSE,157,0.0,0.0,99,0.00,CLR,,0.00,WeatherDisplay:10.37,2015-04-18 08:44:00,
2015-04-18 04:49:00,68.6,68.3,30.01,SSE,157,0.0,0.0,99,0.00,CLR,,0.00,WeatherDisplay:10.37,2015-04-18 08:49:00,
2015-04-18 04:54:00,68.5,68.2,30.01,SSE,157,0.0,0.0,99,0.00,CLR,,0.00,WeatherDisplay:10.37,2015-04-18 08:54:00,
2015-04-18 04:59:00,68.4,68.1,30.01,SSE,157,0.0,0.0,99,0.00,CLR,,0.00,WeatherDisplay:10.37,2015-04-18 08:59:00,
2015-04-18 05:04:00,68.4,68.1,30.01,SSE,157,0.0,0.0,99,0.00,CLR,,0.00,WeatherDisplay:10.37,2015-04-18 09:04:00,
2015-04-18 05:09:00,68.5,68.2,30.01,SW,225,0.0,0.0,99,0.00,CLR,,0.00,WeatherDisplay:10.37,2015-04-18 09:09:00,
2015-04-18 05:14:00,68.6,68.3,30.01,SW,225,1.2,1.2,99,0.00,CLR,,0.00,WeatherDisplay:10.37,2015-04-18 09:14:00,
2015-04-18 05:19:00,68.7,68.4,30.01,SW,225,2.3,2.3,99,0.00,CLR,,0.00,WeatherDisplay:10.37,2015-04-18 09:19:00,
2015-04-18 05:24:00,68.8,68.5,30.01,SW,225,2.3,2.3,99,0.00,CLR,,0.00,WeatherDisplay:10.37,2015-04-18 09:24:00,
2015-04-18 05:29:00,68.8,68.5,30.01,SW,225,3.5,3.5,99,0.00,CLR,,0.00,WeatherDisplay:10.37,2015-04-18 09:29:00,
2015-04-18 05:39:00,68.8,68.5,30.02,South,180,2.3,2.3,99,0.00,CLR,,0.00,WeatherDisplay:10.37,2015-04-18 09:39:00,
2015-04-18 05:44:00,68.7,68.4,30.02,South,180,0.0,0.0,99,0.00,CLR,,0.00,WeatherDisplay:10.37,2015-04-18 09:44:00,
2015-04-18 05:49:00,68.6,68.3,30.02,South,180,0.0,0.0,99,0.00,CLR,,0.00,WeatherDisplay:10.37,2015-04-18 09:49:00,
2015-04-18 05:54:00,68.6,68.3,30.02,South,180,2.0,2.0,99,0.00,CLR,,0.00,WeatherDisplay:10.37,2015-04-18 09:54:00,
2015-04-18 05:59:00,68.6,68.3,30.02,South,180,0.0,0.0,99,0.00,CLR,,0.00,WeatherDisplay:10.37,2015-04-18 09:59:00,
2015-04-18 06:04:00,68.6,68.3,30.02,South,180,1.2,1.2,99,0.00,CLR,,0.00,WeatherDisplay:10.37,2015-04-18 10:04:00,
2015-04-18 06:09:00,68.6,68.3,30.02,South,180,0.0,0.0,99,0.00,CLR,,0.00,WeatherDisplay:10.37,2015-04-18 10:09:00,
2015-04-18 06:14:00,68.6,68.3,30.02,South,180,0.0,0.0,99,0.00,CLR,,0.00,WeatherDisplay:10.37,2015-04-18 10:14:00,
2015-04-18 06:20:00,68.8,68.5,30.02,SSE,157,2.0,2.0,99,0.00,CLR,,0.00,WeatherDisplay:10.37,2015-04-18 10:20:00,
2015-04-18 06:25:00,69.0,68.7,30.02,SSE,157,2.3,2.3,99,0.00,CLR,,0.00,WeatherDisplay:10.37,2015-04-18 10:25:00,
2015-04-18 06:30:00,69.0,68.7,30.02,SSE,157,2.3,2.3,99,0.00,CLR,,0.00,WeatherDisplay:10.37,2015-04-18 10:30:00,
2015-04-18 06:35:00,68.9,68.6,30.02,SSE,157,2.3,2.3,99,0.00,CLR,,0.00,WeatherDisplay:10.37,2015-04-18 10:35:00,
2015-04-18 06:40:00,68.8,68.5,30.02,SSE,157,2.3,2.3,99,0.00,CLR,,0.00,WeatherDisplay:10.37,2015-04-18 10:40:00,
2015-04-18 06:45:00,68.8,68.5,30.02,SSE,157,2.3,2.3,99,0.00,CLR,,0.00,WeatherDisplay:10.37,2015-04-18 10:45:00,
2015-04-18 06:50:00,68.7,68.4,30.02,SSE,157,3.5,3.5,99,0.00,CLR,,0.00,WeatherDisplay:10.37,2015-04-18 10:50:00,
2015-04-18 06:55:00,68.7,68.4,30.02,SSE,157,2.3,2.3,99,0.00,CLR,,0.00,WeatherDisplay:10.37,2015-04-18 10:55:00,
2015-04-18 07:00:00,68.6,68.3,30.03,SSE,157,2.3,2.3,99,0.00,CLR,,0.00,WeatherDisplay:10.37,2015-04-18 11:00:00,
2015-04-18 07:05:00,68.5,68.2,30.03,South,180,2.3,2.3,99,0.00,CLR,,0.00,WeatherDisplay:10.37,2015-04-18 11:05:00,
2015-04-18 07:10:00,68.4,68.1,30.03,South,180,2.3,2.3,99,0.00,CLR,,0.00,WeatherDisplay:10.37,2015-04-18 11:10:00,
2015-04-18 07:15:00,68.5,68.2,30.03,South,180,2.3,2.3,99,0.00,CLR,,0.00,WeatherDisplay:10.37,2015-04-18 11:15:00,
2015-04-18 07:20:00,68.4,68.1,30.03,SSE,157,2.3,2.3,99,0.00,CLR,,0.00,WeatherDisplay:10.37,2015-04-18 11:20:00,
2015-04-18 07:25:00,68.5,68.2,30.03,SSE,157,2.3,2.3,99,0.00,CLR,,0.00,WeatherDisplay:10.37,2015-04-18 11:25:00,
2015-04-18 07:30:00,68.4,68.1,30.03,SSE,157,3.5,3.5,99,0.00,CLR,,0.00,WeatherDisplay:10.37,2015-04-18 11:30:00,
2015-04-18 07:35:00,68.4,68.1,30.03,SSE,157,2.3,2.3,99,0.00,CLR,,0.00,WeatherDisplay:10.37,2015-04-18 11:35:00,
2015-04-18 07:40:00,68.5,68.2,30.03,SSE,157,3.5,3.5,99,0.00,CLR,,0.00,WeatherDisplay:10.37,2015-04-18 11:40:00,
2015-04-18 07:45:00,68.6,68.3,30.03,SSE,157,3.5,3.5,99,0.00,CLR,,0.00,WeatherDisplay:10.37,2015-04-18 11:45:00,
2015-04-18 07:50:00,68.7,68.4,30.03,SSE,157,3.5,3.5,99,0.00,CLR,,0.00,WeatherDisplay:10.37,2015-04-18 11:50:00,
2015-04-18 07:55:00,68.7,68.4,30.03,SSE,157,3.5,3.5,99,0.00,CLR,,0.00,WeatherDisplay:10.37,2015-04-18 11:55:00,
2015-04-18 08:00:00,68.7,68.4,30.03,SSE,157,3.5,3.5,99,0.00,CLR,,0.00,WeatherDisplay:10.37,2015-04-18 12:00:00,
2015-04-18 08:05:00,68.8,68.5,30.03,SSE,157,4.0,4.0,99,0.00,CLR,,0.00,WeatherDisplay:10.37,2015-04-18 12:05:00,
2015-04-18 08:10:00,69.1,68.8,30.04,SSE,157,3.5,3.5,99,0.00,CLR,,0.00,WeatherDisplay:10.37,2015-04-18 12:10:00,
2015-04-18 08:15:00,69.2,68.9,30.03,SSE,157,3.5,3.5,99,0.00,CLR,,0.00,WeatherDisplay:10.37,2015-04-18 12:15:00,
2015-04-18 08:20:00,69.7,69.4,30.03,SSE,157,3.5,3.5,99,0.00,CLR,,0.00,WeatherDisplay:10.37,2015-04-18 12:20:00,
2015-04-18 08:25:00,70.1,69.8,30.04,SSE,157,3.5,3.5,99,0.00,CLR,,0.00,WeatherDisplay:10.37,2015-04-18 12:25:00,
2015-04-18 08:30:00,70.6,70.3,30.05,South,180,4.0,4.0,99,0.00,CLR,,0.00,WeatherDisplay:10.37,2015-04-18 12:30:00,
2015-04-18 08:35:00,71.2,70.9,30.06,SSE,157,4.0,4.0,99,0.00,CLR,,0.00,WeatherDisplay:10.37,2015-04-18 12:35:00,
2015-04-18 08:40:00,71.5,71.2,30.06,South,180,3.5,3.5,99,0.00,CLR,,0.00,WeatherDisplay:10.37,2015-04-18 12:40:00,
2015-04-18 08:45:00,72.1,71.8,30.06,South,180,3.5,3.5,99,0.00,CLR,,0.00,WeatherDisplay:10.37,2015-04-18 12:45:00,
2015-04-18 08:50:00,72.8,72.5,30.06,South,180,2.3,2.3,99,0.00,CLR,,0.00,WeatherDisplay:10.37,2015-04-18 12:50:00,
2015-04-18 08:55:00,73.2,72.9,30.06,SSE,157,6.9,6.9,99,0.00,CLR,,0.00,WeatherDisplay:10.37,2015-04-18 12:55:00,
2015-04-18 09:00:00,74.0,73.7,30.07,SSE,157,2.3,2.3,99,0.00,CLR,,0.00,WeatherDisplay:10.37,2015-04-18 13:00:00,
2015-04-18 09:05:00,74.7,74.4,30.07,South,180,3.5,3.5,99,0.00,CLR,,0.00,WeatherDisplay:10.37,2015-04-18 13:05:00,
2015-04-18 09:10:00,75.3,75.0,30.08,South,180,3.5,3.5,99,0.00,CLR,,0.00,WeatherDisplay:10.37,2015-04-18 13:10:00,
2015-04-18 09:15:00,76.0,76.0,30.08,SSW,202,3.5,3.5,100,0.00,CLR,,0.00,WeatherDisplay:10.37,2015-04-18 13:15:00,
2015-04-18 09:20:00,76.5,76.5,30.08,SW,225,3.5,3.5,100,0.00,CLR,,0.00,WeatherDisplay:10.37,2015-04-18 13:20:00,
2015-04-18 09:25:00,76.2,74.0,30.08,SSE,157,6.9,6.9,93,0.00,CLR,,0.00,WeatherDisplay:10.37,2015-04-18 13:25:00,
2015-04-18 09:30:00,76.5,74.7,30.08,South,180,3.5,3.5,94,0.00,CLR,,0.00,WeatherDisplay:10.37,2015-04-18 13:30:00,
2015-04-18 09:35:00,77.2,73.4,30.07,SSE,157,9.2,9.2,88,0.00,CLR,,0.00,WeatherDisplay:10.37,2015-04-18 13:35:00,
2015-04-18 09:40:00,77.7,73.2,30.07,SSE,157,8.1,8.1,86,0.00,CLR,,0.00,WeatherDisplay:10.37,2015-04-18 13:40:00,
2015-04-18 09:45:00,78.1,73.2,30.07,South,180,9.2,9.2,85,0.00,CLR,,0.00,WeatherDisplay:10.37,2015-04-18 13:45:00,
2015-04-18 09:50:00,79.1,73.1,30.07,South,180,9.2,9.2,82,0.00,CLR,,0.00,WeatherDisplay:10.37,2015-04-18 13:50:00,
2015-04-18 09:55:00,79.6,72.9,30.07,SSE,157,10.4,10.4,80,0.00,CLR,,0.00,WeatherDisplay:10.37,2015-04-18 13:55:00,
2015-04-18 10:00:00,79.8,72.7,30.06,SSE,157,13.8,13.8,79,0.00,CLR,,0.00,WeatherDisplay:10.37,2015-04-18 14:00:00,
2015-04-18 10:05:00,80.2,72.7,30.06,South,180,11.5,11.5,78,0.00,SCT,,0.00,WeatherDisplay:10.37,2015-04-18 14:05:00,
2015-04-18 10:10:00,80.4,72.5,30.06,SSE,157,13.8,13.8,77,0.00,SCT,,0.00,WeatherDisplay:10.37,2015-04-18 14:10:00,
2015-04-18 10:15:00,80.4,73.3,30.07,South,180,11.5,11.5,79,0.00,SCT,,0.00,WeatherDisplay:10.37,2015-04-18 14:15:00,
2015-04-18 10:20:00,80.5,72.6,30.07,SSE,157,10.0,10.0,77,0.00,SCT,,0.00,WeatherDisplay:10.37,2015-04-18 14:20:00,
2015-04-18 10:25:00,80.7,72.4,30.07,SE,135,11.5,11.5,76,0.00,SCT,,0.00,WeatherDisplay:10.37,2015-04-18 14:25:00,
2015-04-18 10:30:00,80.8,72.5,30.07,SE,135,12.0,12.0,76,0.00,SCT,,0.00,WeatherDisplay:10.37,2015-04-18 14:30:00,
2015-04-18 10:35:00,81.4,73.5,30.07,South,180,13.0,13.0,77,0.00,SCT,,0.00,WeatherDisplay:10.37,2015-04-18 14:35:00,
2015-04-18 10:40:00,81.5,72.8,30.07,South,180,12.0,12.0,75,0.00,SCT,,0.00,WeatherDisplay:10.37,2015-04-18 14:40:00,
2015-04-18 10:45:00,81.7,72.6,30.08,South,180,16.0,16.0,74,0.00,SCT,,0.00,WeatherDisplay:10.37,2015-04-18 14:45:00,
2015-04-18 10:50:00,81.8,71.9,30.08,South,180,15.0,15.0,72,0.00,SCT,,0.00,WeatherDisplay:10.37,2015-04-18 14:50:00,
2015-04-18 10:55:00,82.1,70.9,30.07,SSE,157,11.5,11.5,69,0.00,SCT,,0.00,WeatherDisplay:10.37,2015-04-18 14:55:00,
2015-04-18 11:00:00,82.3,72.0,30.08,SSE,157,11.5,11.5,71,0.00,SCT,,0.00,WeatherDisplay:10.37,2015-04-18 15:00:00,
2015-04-18 11:05:00,82.3,71.6,30.07,SSE,157,10.4,10.4,70,0.00,SCT,,0.00,WeatherDisplay:10.37,2015-04-18 15:05:00,
2015-04-18 11:10:00,82.7,72.4,30.08,SSE,157,13.8,13.8,71,0.00,SCT,,0.00,WeatherDisplay:10.37,2015-04-18 15:10:00,
2015-04-18 11:15:00,82.5,72.2,30.08,SSW,202,15.0,15.0,71,0.00,SCT,,0.00,WeatherDisplay:10.37,2015-04-18 15:15:00,
2015-04-18 11:20:00,82.8,70.7,30.08,SSE,157,11.5,11.5,67,0.00,SCT,,0.00,WeatherDisplay:10.37,2015-04-18 15:20:00,
2015-04-18 11:26:00,83.1,72.3,30.08,South,180,11.5,11.5,70,0.00,SCT,,0.00,WeatherDisplay:10.37,2015-04-18 15:26:00,
2015-04-18 11:31:00,82.3,71.6,30.08,SSE,157,15.0,15.0,70,0.00,SCT,,0.00,WeatherDisplay:10.37,2015-04-18 15:31:00,
2015-04-18 11:36:00,82.5,72.6,30.08,SE,135,13.8,13.8,72,0.00,SCT,,0.00,WeatherDisplay:10.37,2015-04-18 15:36:00,
2015-04-18 11:41:00,82.7,73.2,30.08,SSE,157,9.2,9.2,73,0.00,SCT,,0.00,WeatherDisplay:10.37,2015-04-18 15:41:00,
2015-04-18 11:46:00,82.8,72.0,30.08,SSE,157,13.8,13.8,70,0.00,SCT,,0.00,WeatherDisplay:10.37,2015-04-18 15:46:00,
2015-04-18 11:51:00,83.3,72.1,30.08,South,180,13.0,13.0,69,0.00,SCT,,0.00,WeatherDisplay:10.37,2015-04-18 15:51:00,
2015-04-18 11:56:00,83.5,73.1,30.08,South,180,13.0,13.0,71,0.00,SCT,,0.00,WeatherDisplay:10.37,2015-04-18 15:56:00,
2015-04-18 12:01:00,83.1,71.5,30.08,South,180,10.4,10.4,68,0.00,SCT,,0.00,WeatherDisplay:10.37,2015-04-18 16:01:00,
2015-04-18 12:06:00,83.5,72.3,30.08,South,180,11.5,11.5,69,0.00,SCT,,0.00,WeatherDisplay:10.37,2015-04-18 16:06:00,
2015-04-18 12:11:00,83.7,71.6,30.08,SSE,157,9.2,9.2,67,0.00,SCT,,0.00,WeatherDisplay:10.37,2015-04-18 16:11:00,
2015-04-18 12:16:00,84.3,72.6,30.08,South,180,10.4,10.4,68,0.00,SCT,,0.00,WeatherDisplay:10.37,2015-04-18 16:16:00,
2015-04-18 12:21:00,85.0,73.7,30.08,South,180,7.0,7.0,69,0.00,SCT,,0.00,WeatherDisplay:10.37,2015-04-18 16:21:00,
2015-04-18 12:26:00,84.4,71.4,30.08,South,180,11.5,11.5,65,0.00,SCT,,0.00,WeatherDisplay:10.37,2015-04-18 16:26:00,
2015-04-18 12:31:00,84.1,70.6,30.08,South,180,9.2,9.2,64,0.00,SCT,,0.00,WeatherDisplay:10.37,2015-04-18 16:31:00,
2015-04-18 12:36:00,84.6,71.1,30.08,SE,135,6.9,6.9,64,0.00,SCT,,0.00,WeatherDisplay:10.37,2015-04-18 16:36:00,
2015-04-18 12:41:00,85.4,71.9,30.08,South,180,6.9,6.9,64,0.00,SCT,,0.00,WeatherDisplay:10.37,2015-04-18 16:41:00,
2015-04-18 12:46:00,85.5,71.5,30.08,South,180,11.5,11.5,63,0.00,SCT,,0.00,WeatherDisplay:10.37,2015-04-18 16:46:00,
2015-04-18 12:51:00,85.7,70.7,30.08,SSW,202,11.5,11.5,61,0.00,SCT,,0.00,WeatherDisplay:10.37,2015-04-18 16:51:00,
2015-04-18 12:56:00,85.9,72.3,30.08,SW,225,9.2,9.2,64,0.00,SCT,,0.00,WeatherDisplay:10.37,2015-04-18 16:56:00,
2015-04-18 13:01:00,86.2,72.6,30.08,SSE,157,11.0,11.0,64,0.00,SCT,,0.00,WeatherDisplay:10.37,2015-04-18 17:01:00,
2015-04-18 13:06:00,86.4,73.3,30.08,SW,225,6.9,6.9,65,0.00,SCT,,0.00,WeatherDisplay:10.37,2015-04-18 17:06:00,
2015-04-18 13:11:00,87.2,71.1,30.08,WSW,247,11.5,11.5,59,0.00,SCT,,0.00,WeatherDisplay:10.37,2015-04-18 17:11:00,
2015-04-18 13:16:00,87.1,70.0,30.08,SW,225,9.2,9.2,57,0.00,SCT,,0.00,WeatherDisplay:10.37,2015-04-18 17:16:00,
2015-04-18 13:21:00,87.6,71.5,30.08,SSE,157,8.1,8.1,59,0.00,SCT,,0.00,WeatherDisplay:10.37,2015-04-18 17:21:00,
2015-04-18 13:26:00,87.8,71.7,30.08,SSW,202,5.8,5.8,59,0.00,SCT,,0.00,WeatherDisplay:10.37,2015-04-18 17:26:00,
2015-04-18 13:31:00,87.9,69.7,30.08,SSW,202,8.1,8.1,55,0.00,SCT,,0.00,WeatherDisplay:10.37,2015-04-18 17:31:00,
2015-04-18 13:36:00,87.2,71.1,30.08,South,180,10.4,10.4,59,0.00,SCT,,0.00,WeatherDisplay:10.37,2015-04-18 17:36:00,
2015-04-18 13:41:00,86.8,70.8,30.07,SSE,157,11.5,11.5,59,0.00,SCT,,0.00,WeatherDisplay:10.37,2015-04-18 17:41:00,
2015-04-18 13:46:00,86.7,69.7,30.07,SW,225,10.4,10.4,57,0.00,SCT,,0.00,WeatherDisplay:10.37,2015-04-18 17:46:00,
2015-04-18 13:51:00,86.8,70.8,30.07,South,180,4.6,4.6,59,0.00,SCT,,0.00,WeatherDisplay:10.37,2015-04-18 17:51:00,
2015-04-18 13:56:00,87.1,70.5,30.07,SSW,202,9.2,9.2,58,0.00,SCT,,0.00,WeatherDisplay:10.37,2015-04-18 17:56:00,
2015-04-18 14:01:00,86.7,70.7,30.06,SSE,157,6.9,6.9,59,0.00,SCT,,0.00,WeatherDisplay:10.37,2015-04-18 18:01:00,
2015-04-18 14:06:00,87.5,69.9,30.06,SW,225,13.8,13.8,56,0.00,SCT,,0.00,WeatherDisplay:10.37,2015-04-18 18:06:00,
2015-04-18 14:11:00,87.4,70.8,30.06,South,180,10.4,10.4,58,0.00,SCT,,0.00,WeatherDisplay:10.37,2015-04-18 18:11:00,
2015-04-18 14:21:00,87.5,70.4,30.05,SSW,202,4.0,4.0,57,0.00,SCT,,0.00,WeatherDisplay:10.37,2015-04-18 18:21:00,
2015-04-18 14:26:00,87.9,71.3,30.04,SW,225,11.5,11.5,58,0.00,SCT,,0.00,WeatherDisplay:10.37,2015-04-18 18:26:00,
2015-04-18 14:31:00,88.6,70.9,30.04,SW,225,5.8,5.8,56,0.00,SCT,,0.00,WeatherDisplay:10.37,2015-04-18 18:31:00,
2015-04-18 14:36:00,88.8,70.6,30.04,South,180,5.8,5.8,55,0.00,SCT,,0.00,WeatherDisplay:10.37,2015-04-18 18:36:00,
2015-04-18 14:41:00,88.1,70.4,30.04,SW,225,10.4,10.4,56,0.00,SCT,,0.00,WeatherDisplay:10.37,2015-04-18 18:41:00,
2015-04-18 14:46:00,88.0,69.8,30.04,SW,225,10.4,10.4,55,0.00,SCT,,0.00,WeatherDisplay:10.37,2015-04-18 18:46:00,
2015-04-18 14:51:00,87.7,71.6,30.03,SSW,202,6.9,6.9,59,0.00,SCT,,0.00,WeatherDisplay:10.37,2015-04-18 18:51:00,
2015-04-18 14:56:00,87.6,69.5,30.03,SW,225,10.4,10.4,55,0.00,SCT,,0.00,WeatherDisplay:10.37,2015-04-18 18:56:00,
2015-04-18 15:01:00,87.0,67.8,30.02,SW,225,11.5,11.5,53,0.00,SCT,,0.00,WeatherDisplay:10.37,2015-04-18 19:01:00,
2015-04-18 15:06:00,86.8,68.7,30.02,SW,225,11.5,11.5,55,0.00,SCT,,0.00,WeatherDisplay:10.37,2015-04-18 19:06:00,
2015-04-18 15:11:00,87.1,71.0,30.02,SSW,202,3.5,3.5,59,0.00,SCT,,0.00,WeatherDisplay:10.37,2015-04-18 19:11:00,
2015-04-18 15:16:00,88.2,70.5,30.02,SSW,202,11.0,11.0,56,0.00,SCT,,0.00,WeatherDisplay:10.37,2015-04-18 19:16:00,
2015-04-18 15:21:00,88.0,69.8,30.02,SW,225,11.5,11.5,55,0.00,SCT,,0.00,WeatherDisplay:10.37,2015-04-18 19:21:00,
2015-04-18 15:26:00,87.7,69.0,30.02,SSW,202,9.2,9.2,54,0.00,SCT,,0.00,WeatherDisplay:10.37,2015-04-18 19:26:00,
2015-04-18 15:31:00,87.7,70.1,30.02,SW,225,5.8,5.8,56,0.00,SCT,,0.00,WeatherDisplay:10.37,2015-04-18 19:31:00,
2015-04-18 15:36:00,87.9,67.5,30.01,SW,225,10.4,10.4,51,0.00,SCT,,0.00,WeatherDisplay:10.37,2015-04-18 19:36:00,
2015-04-18 15:41:00,88.0,68.7,30.01,SW,225,9.2,9.2,53,0.00,SCT,,0.00,WeatherDisplay:10.37,2015-04-18 19:41:00,
2015-04-18 15:46:00,88.2,68.9,30.01,SW,225,6.9,6.9,53,0.00,SCT,,0.00,WeatherDisplay:10.37,2015-04-18 19:46:00,
2015-04-18 15:51:00,88.0,66.5,30.01,West,270,6.9,6.9,49,0.00,SCT,,0.00,WeatherDisplay:10.37,2015-04-18 19:51:00,
2015-04-18 15:56:00,87.7,67.3,30.01,West,270,11.5,11.5,51,0.00,SCT,,0.00,WeatherDisplay:10.37,2015-04-18 19:56:00,
2015-04-18 16:01:00,88.4,66.8,30.00,SW,225,10.0,10.0,49,0.00,BKN,,0.00,WeatherDisplay:10.37,2015-04-18 20:01:00,
2015-04-18 16:06:00,88.6,67.0,30.00,WSW,247,9.2,9.2,49,0.00,BKN,,0.00,WeatherDisplay:10.37,2015-04-18 20:06:00,
2015-04-18 16:11:00,88.2,66.1,30.00,SW,225,11.5,11.5,48,0.00,BKN,,0.00,WeatherDisplay:10.37,2015-04-18 20:11:00,
2015-04-18 16:16:00,87.6,68.4,30.00,SW,225,9.2,9.2,53,0.00,BKN,,0.00,WeatherDisplay:10.37,2015-04-18 20:16:00,
2015-04-18 16:21:00,87.5,66.0,29.99,SW,225,7.0,7.0,49,0.00,BKN,,0.00,WeatherDisplay:10.37,2015-04-18 20:21:00,
2015-04-18 16:26:00,87.3,67.0,29.99,West,270,8.0,8.0,51,0.00,BKN,,0.00,WeatherDisplay:10.37,2015-04-18 20:26:00,
2015-04-18 16:31:00,87.1,68.5,29.99,WSW,247,6.0,6.0,54,0.00,BKN,,0.00,WeatherDisplay:10.37,2015-04-18 20:31:00,
2015-04-18 16:36:00,87.5,68.8,29.99,SW,225,5.8,5.8,54,0.00,BKN,,0.00,WeatherDisplay:10.37,2015-04-18 20:36:00,
2015-04-18 16:41:00,88.1,68.8,29.99,West,270,8.1,8.1,53,0.00,BKN,,0.00,WeatherDisplay:10.37,2015-04-18 20:41:00,
2015-04-18 16:47:00,88.5,65.7,29.99,WSW,247,6.9,6.9,47,0.00,BKN,,0.00,WeatherDisplay:10.37,2015-04-18 20:47:00,
2015-04-18 16:52:00,88.8,67.2,29.99,SW,225,10.4,10.4,49,0.00,BKN,,0.00,WeatherDisplay:10.37,2015-04-18 20:52:00,
2015-04-18 16:57:00,88.7,66.5,29.99,SW,225,6.9,6.9,48,0.00,BKN,,0.00,WeatherDisplay:10.37,2015-04-18 20:57:00,
2015-04-18 17:02:00,88.9,68.4,29.99,West,270,6.9,6.9,51,0.00,CLR,,0.00,WeatherDisplay:10.37,2015-04-18 21:02:00,
2015-04-18 17:07:00,88.8,69.5,29.99,SW,225,11.5,11.5,53,0.00,CLR,,0.00,WeatherDisplay:10.37,2015-04-18 21:07:00,
2015-04-18 17:12:00,88.3,67.9,29.99,West,270,8.1,8.1,51,0.00,CLR,,0.00,WeatherDisplay:10.37,2015-04-18 21:12:00,
2015-04-18 17:17:00,88.4,67.4,29.99,SW,225,5.8,5.8,50,0.00,CLR,,0.00,WeatherDisplay:10.37,2015-04-18 21:17:00,
2015-04-18 17:22:00,88.5,67.5,29.99,SW,225,3.5,3.5,50,0.00,CLR,,0.00,WeatherDisplay:10.37,2015-04-18 21:22:00,
2015-04-18 17:27:00,87.8,66.9,29.99,SW,225,8.1,8.1,50,0.00,CLR,,0.00,WeatherDisplay:10.37,2015-04-18 21:27:00,
2015-04-18 17:32:00,87.4,67.1,29.99,SW,225,5.0,5.0,51,0.00,CLR,,0.00,WeatherDisplay:10.37,2015-04-18 21:32:00,
2015-04-18 17:37:00,87.8,69.1,29.99,SW,225,5.8,5.8,54,0.00,CLR,,0.00,WeatherDisplay:10.37,2015-04-18 21:37:00,
2015-04-18 17:42:00,88.2,66.6,29.99,SW,225,9.2,9.2,49,0.00,CLR,,0.00,WeatherDisplay:10.37,2015-04-18 21:42:00,
2015-04-18 17:47:00,88.2,67.2,29.99,SW,225,11.5,11.5,50,0.00,CLR,,0.00,WeatherDisplay:10.37,2015-04-18 21:47:00,